La Junta, CO

8:02 PM MST on December 05, 2016 (GMT -0700)
La Junta Municipal

Weather History for KLHX - October, 2012

Change the Weather History Date:

Sunday, October 28, 2012

  Actual Average Record
Temperature  
Mean Temperature 42 °F 50 °F  
Max Temperature 60 °F 65 °F 86 °F (2016)
Min Temperature 23 °F 34 °F 17 °F (1997)
Degree Days  
Heating Degree Days 23 16  
Month to date heating degree days 338 300  
Since 1 July heating degree days 368 373  
Cooling Degree Days 0 0  
Month to date cooling degree days 3 7  
Year to date cooling degree days 1733 1223  
Moisture  
Dew Point 26 °F    
Average Humidity 59    
Maximum Humidity 92    
Minimum Humidity 25    
Precipitation  
Precipitation 0.00 in 0.03 in 0.78 in (1958)
Month to date precipitation 0.26 0.84  
Year to date precipitation 5.52  
Sea Level Pressure  
Sea Level Pressure 30.10 in    
Wind  
Wind Speed 6 mph (NW)    
Max Wind Speed 15 mph    
Max Gust Speed 16 mph    
Visibility 10 miles    
Events      
T = Trace of Precipitation, MM = Missing Value Source: NWS Daily Summary

Daily Weather History Graph

Daily Weather History Graph

Search for Another Location

Airport or City:

Trip Planner

Search our weather history database for the weather conditions in past years. The results will help you decide how hot, cold, wet, or windy it might be!

Date:

Astronomy

Oct. 28, 2012 Rise Set
Actual Time 7:16 AM MDT 5:58 PM MDT
Civil Twilight 6:49 AM MDT 6:25 PM MDT
Nautical Twilight 6:18 AM MDT 6:56 PM MDT
Astronomical Twilight 5:47 AM MDT 7:27 PM MDT
Moon 5:17 PM MDT (10/28) 6:11 AM MDT (10/28)
Length of Visible Light 11h 36m
Length of Day
10h 42m
Waxing Gibbous, 99% of the Moon is Illuminated
Oct 28
Waxing Gibbous
Oct 29
Full
Nov 6
Last Quarter
Nov 13
New
Nov 20
First Quarter

Hourly Weather History & Observations

Time (MDT) Temp. Windchill Dew Point Humidity Pressure Visibility Wind Dir Wind Speed Gust Speed Precip Events Conditions
12:53 AM 28.9 °F 25.2 °F 25.0 °F 85% 30.19 in 10.0 mi North 3.5 mph - N/A   Clear
1:53 AM 30.9 °F - 27.0 °F 85% 30.15 in 10.0 mi Calm Calm - N/A   Clear
2:53 AM 28.0 °F 22.8 °F 25.0 °F 88% 30.16 in 10.0 mi SW 4.6 mph - N/A   Clear
3:53 AM 27.0 °F - 21.9 °F 81% 30.14 in 10.0 mi Calm Calm - N/A   Clear
4:53 AM 27.0 °F - 24.1 °F 89% 30.15 in 10.0 mi Calm Calm - N/A   Clear
5:53 AM 26.1 °F - 23.0 °F 88% 30.16 in 10.0 mi Calm Calm - N/A   Clear
6:53 AM 23.0 °F 13.9 °F 19.9 °F 88% 30.18 in 10.0 mi West 8.1 mph - N/A   Clear
7:53 AM 25.0 °F 19.3 °F 21.9 °F 88% 30.20 in 9.0 mi WNW 4.6 mph - N/A   Clear
8:53 AM 32.0 °F 28.7 °F 27.0 °F 82% 30.19 in 10.0 mi WNW 3.5 mph - N/A   Clear
9:53 AM 36.0 °F 32.1 °F 27.0 °F 70% 30.19 in 10.0 mi West 4.6 mph - N/A   Clear
11:53 AM 48.0 °F - 27.0 °F 44% 30.11 in 10.0 mi SW 3.5 mph - N/A   Clear
12:53 PM 52.0 °F - 27.0 °F 38% 30.07 in 10.0 mi South 4.6 mph - N/A   Clear
1:53 PM 55.0 °F - 26.1 °F 33% 30.03 in 10.0 mi Calm Calm - N/A   Clear
2:53 PM 57.9 °F - 26.1 °F 30% 30.00 in 10.0 mi East 4.6 mph - N/A   Clear
3:53 PM 59.0 °F - 25.0 °F 27% 29.98 in 10.0 mi ESE 9.2 mph - N/A   Clear
4:53 PM 60.1 °F - 25.0 °F 26% 29.99 in 10.0 mi East 6.9 mph - N/A   Clear
5:53 PM 54.0 °F - 26.1 °F 34% 30.01 in 10.0 mi ENE 8.1 mph - N/A   Clear
6:53 PM 48.9 °F - 26.1 °F 41% 30.04 in 10.0 mi ENE 5.8 mph - N/A   Clear
7:53 PM 44.1 °F 39.5 °F 27.0 °F 51% 30.07 in 10.0 mi North 8.1 mph - N/A   Clear
8:53 PM 42.1 °F 36.6 °F 28.0 °F 58% 30.07 in 10.0 mi North 9.2 mph - N/A   Clear
9:53 PM 39.9 °F 34.5 °F 28.0 °F 63% 30.09 in 10.0 mi North 8.1 mph - N/A   Clear
10:53 PM 39.9 °F 33.4 °F 27.0 °F 60% 30.08 in 10.0 mi West 10.4 mph - N/A   Clear
11:53 PM 39.0 °F 31.4 °F 28.0 °F 65% 30.06 in 10.0 mi West 12.7 mph - N/A   Clear